Simultaneous Nadir Overpasses (SNOs) Predictions

Prediction of SNOs between GOES-16 and TERRA Satellite Orbit:

Table of predicted SNOs for the next 14.0 days since TLE Epoch: 7/9/2022
Index Date Time (GOES-16) GOES-16 Lat,Lon TERRA Lat,Lon Distance(km) Time Diff (sec)
1 07/10/2022 15:17:55 0.01, -75.21 0.01, -75.32 11.75 80
2 07/12/2022 15:08:18 0.02, -75.22 -0.57, -72.35 325.83 80
3 07/13/2022 03:29:41 -0.02, -75.21 -0.54, -77.54 265.67 80
4 07/15/2022 03:14:45 -0.02, -75.22 0.11, -74.58 72.01 80
5 07/17/2022 03:02:29 -0.00, -75.24 0.77, -71.63 410.51 80
6 07/17/2022 15:26:23 0.00, -75.26 0.34, -76.78 174.06 80
7 07/19/2022 15:14:07 -0.02, -75.29 -0.32, -73.83 165.61 80
8 07/20/2022 03:35:29 0.02, -75.28 -0.78, -79.02 424.82 80
9 07/22/2022 03:23:13 -0.01, -75.32 -0.16, -76.06 83.31 80
